• In Hungary
  • List of Countries
  • For 7 days
  • Water Temperature
  • Satellite Maps
  • Weather Map
  • News
  • Weather Widgets
  • user-avatar
    Login

    Hourly Weather San Miguel de Tucumán

    Today, 20 November, Monday

    Time Temperature Precipitation Wind Pressure Humidity
    00:00 +23°C° 0 mm 2 mps 715 mmHg 49%
    01:00 +23°C° 0 mm 2 mps 715 mmHg 49%
    02:00 +23°C° 0 mm 2 mps 714 mmHg 51%
    03:00 +21°C° 0 mm 2 mps 714 mmHg 52%
    04:00 +21°C° 0 mm 2 mps 714 mmHg 52%
    05:00 +21°C° 0 mm 2 mps 714 mmHg 53%
    06:00 +24°C° 0 mm 2 mps 715 mmHg 49%
    07:00 +26°C° 0 mm 2 mps 715 mmHg 44%
    08:00 +28°C° 0 mm 3 mps 715 mmHg 40%
    09:00 +30°C° 0 mm 3 mps 715 mmHg 36%
    10:00 +33°C° 0 mm 3 mps 715 mmHg 32%
    11:00 +35°C° 0 mm 3 mps 715 mmHg 28%
    12:00 +35°C° 0 mm 4 mps 715 mmHg 27%
    13:00 +36°C° 0 mm 4 mps 714 mmHg 26%
    14:00 +37°C° 0 mm 4 mps 714 mmHg 25%
    15:00 +37°C° 0 mm 4 mps 713 mmHg 27%
    16:00 +36°C° 0 mm 4 mps 713 mmHg 28%
    17:00 +36°C° 0 mm 4 mps 712 mmHg 29%
    18:00 +33°C° 0 mm 3 mps 712 mmHg 34%
    19:00 +30°C° 0 mm 3 mps 713 mmHg 40%
    20:00 +28°C° 0 mm 2 mps 713 mmHg 45%
    21:00 +27°C° 0 mm 2 mps 714 mmHg 46%
    22:00 +27°C° 0 mm 2 mps 715 mmHg 48%
    23:00 +26°C° 0 mm 1 mps 715 mmHg 49%

    Tomorrow, 21 November, Tuesday

    Time Temperature Precipitation Wind Pressure Humidity
    00:00 +26°C° 0 mm 1 mps 715 mmHg 49%
    01:00 +25°C° 0 mm 2 mps 716 mmHg 50%
    02:00 +25°C° 0 mm 2 mps 716 mmHg 50%
    03:00 +23°C° 0.2 mm 2 mps 716 mmHg 57%
    04:00 +21°C° 0.2 mm 3 mps 717 mmHg 63%
    05:00 +20°C° 0.2 mm 4 mps 718 mmHg 70%
    06:00 +20°C° 0.1 mm 4 mps 719 mmHg 72%
    07:00 +20°C° 0.1 mm 4 mps 720 mmHg 73%
    08:00 +20°C° 0.1 mm 3 mps 721 mmHg 74%
    09:00 +21°C° 0 mm 3 mps 721 mmHg 70%
    10:00 +22°C° 0 mm 3 mps 721 mmHg 66%
    11:00 +24°C° 0 mm 3 mps 721 mmHg 62%
    12:00 +26°C° 0 mm 3 mps 721 mmHg 57%
    13:00 +27°C° 0 mm 3 mps 720 mmHg 52%
    14:00 +29°C° 0 mm 3 mps 720 mmHg 46%
    15:00 +28°C° 0 mm 3 mps 719 mmHg 48%
    16:00 +28°C° 0 mm 2 mps 719 mmHg 50%
    17:00 +27°C° 0 mm 2 mps 719 mmHg 51%
    18:00 +26°C° 0 mm 2 mps 720 mmHg 57%
    19:00 +24°C° 0 mm 1 mps 720 mmHg 63%
    20:00 +23°C° 0 mm 1 mps 721 mmHg 69%
    21:00 +22°C° 0 mm 1 mps 722 mmHg 71%
    22:00 +22°C° 0 mm 1 mps 722 mmHg 73%
    23:00 +21°C° 0 mm 1 mps 723 mmHg 74%

    Day after tomorrow, 22 November, Wednesday

    Time Temperature Precipitation Wind Pressure Humidity
    00:00 +21°C° 0 mm 1 mps 722 mmHg 75%
    01:00 +21°C° 0 mm 1 mps 722 mmHg 76%
    02:00 +20°C° 0 mm 1 mps 721 mmHg 76%
    03:00 +20°C° 0 mm 1 mps 721 mmHg 77%
    04:00 +20°C° 0 mm 1 mps 721 mmHg 77%
    05:00 +19°C° 0 mm 1 mps 722 mmHg 77%
    06:00 +20°C° 0 mm 2 mps 722 mmHg 70%
    07:00 +23°C° 0 mm 2 mps 722 mmHg 63%
    08:00 +24°C° 0 mm 3 mps 723 mmHg 56%
    09:00 +26°C° 0 mm 3 mps 723 mmHg 51%
    10:00 +28°C° 0 mm 3 mps 722 mmHg 46%
    11:00 +29°C° 0 mm 3 mps 722 mmHg 42%
    12:00 +30°C° 0 mm 3 mps 721 mmHg 39%
    13:00 +32°C° 0 mm 4 mps 720 mmHg 36%
    14:00 +33°C° 0 mm 4 mps 719 mmHg 33%
    15:00 +33°C° 0 mm 4 mps 719 mmHg 33%
    16:00 +33°C° 0 mm 3 mps 718 mmHg 32%
    17:00 +31°C° 0 mm 3 mps 717 mmHg 32%
    18:00 +29°C° 0 mm 3 mps 717 mmHg 36%
    19:00 +27°C° 0 mm 2 mps 718 mmHg 40%
    20:00 +25°C° 0 mm 2 mps 718 mmHg 44%
    21:00 +24°C° 0 mm 2 mps 718 mmHg 44%
    22:00 +24°C° 0 mm 2 mps 718 mmHg 45%
    23:00 +24°C° 0 mm 2 mps 719 mmHg 45%

    23 November, Thursday

    Time Temperature Precipitation Wind Pressure Humidity
    00:00 +23°C° 0 mm 2 mps 718 mmHg 47%
    01:00 +23°C° 0 mm 2 mps 718 mmHg 48%
    02:00 +21°C° 0 mm 2 mps 717 mmHg 49%
    03:00 +21°C° 0 mm 2 mps 717 mmHg 50%
    04:00 +21°C° 0 mm 2 mps 717 mmHg 50%
    05:00 +21°C° 0 mm 2 mps 717 mmHg 51%
    06:00 +24°C° 0 mm 2 mps 717 mmHg 47%
    07:00 +26°C° 0 mm 2 mps 718 mmHg 43%
    08:00 +28°C° 0 mm 2 mps 718 mmHg 38%
    09:00 +30°C° 0 mm 2 mps 718 mmHg 35%
    10:00 +33°C° 0 mm 3 mps 718 mmHg 31%
    11:00 +35°C° 0 mm 3 mps 718 mmHg 28%
    12:00 +36°C° 0 mm 3 mps 717 mmHg 26%
    13:00 +37°C° 0 mm 4 mps 716 mmHg 25%
    14:00 +38°C° 0 mm 4 mps 715 mmHg 23%
    15:00 +38°C° 0 mm 4 mps 715 mmHg 23%
    16:00 +38°C° 0 mm 4 mps 714 mmHg 24%
    17:00 +37°C° 0 mm 4 mps 714 mmHg 25%
    18:00 +35°C° 0 mm 3 mps 714 mmHg 30%
    19:00 +31°C° 0 mm 3 mps 715 mmHg 35%
    20:00 +29°C° 0 mm 2 mps 715 mmHg 40%
    21:00 +28°C° 0 mm 2 mps 715 mmHg 42%
    22:00 +28°C° 0 mm 2 mps 716 mmHg 44%
    23:00 +27°C° 0 mm 2 mps 716 mmHg 46%

    24 November, Friday

    Time Temperature Precipitation Wind Pressure Humidity
    00:00 +27°C° 0 mm 2 mps 716 mmHg 47%
    01:00 +26°C° 0 mm 2 mps 716 mmHg 48%
    02:00 +26°C° 0 mm 2 mps 715 mmHg 49%
    03:00 +25°C° 0 mm 2 mps 715 mmHg 49%
    04:00 +25°C° 0 mm 2 mps 716 mmHg 50%
    05:00 +24°C° 0 mm 2 mps 716 mmHg 50%
    06:00 +26°C° 0 mm 2 mps 716 mmHg 47%
    07:00 +28°C° 0 mm 2 mps 717 mmHg 43%
    08:00 +30°C° 0 mm 2 mps 717 mmHg 40%
    09:00 +33°C° 0 mm 3 mps 717 mmHg 37%
    10:00 +35°C° 0 mm 3 mps 717 mmHg 34%
    11:00 +37°C° 0 mm 4 mps 717 mmHg 31%
    12:00 +38°C° 0 mm 4 mps 716 mmHg 29%
    13:00 +40°C° 0 mm 4 mps 715 mmHg 28%
    14:00 +41°C° 0 mm 4 mps 714 mmHg 27%
    15:00 +40°C° 0 mm 4 mps 714 mmHg 28%
    16:00 +40°C° 0 mm 4 mps 713 mmHg 28%
    17:00 +40°C° 0 mm 4 mps 713 mmHg 29%
    18:00 +36°C° 0.4 mm 4 mps 713 mmHg 38%
    19:00 +33°C° 0.4 mm 3 mps 713 mmHg 46%
    20:00 +29°C° 0.4 mm 2 mps 713 mmHg 55%
    21:00 +29°C° 0.7 mm 2 mps 714 mmHg 59%
    22:00 +28°C° 0.7 mm 2 mps 714 mmHg 63%
    23:00 +27°C° 0.7 mm 2 mps 714 mmHg 67%

    25 November, Saturday

    Time Temperature Precipitation Wind Pressure Humidity
    00:00 +27°C° 0.1 mm 2 mps 714 mmHg 69%
    01:00 +26°C° 0.1 mm 2 mps 713 mmHg 71%
    02:00 +26°C° 0.1 mm 2 mps 713 mmHg 73%
    03:00 +25°C° 0.1 mm 2 mps 713 mmHg 75%
    04:00 +25°C° 0.1 mm 2 mps 713 mmHg 78%
    05:00 +24°C° 0.1 mm 1 mps 713 mmHg 80%
    06:00 +25°C° 0.1 mm 2 mps 714 mmHg 79%
    07:00 +26°C° 0.1 mm 3 mps 715 mmHg 77%
    08:00 +26°C° 0.1 mm 3 mps 716 mmHg 75%
    09:00 +27°C° 0.1 mm 3 mps 716 mmHg 72%
    10:00 +27°C° 0.1 mm 3 mps 716 mmHg 69%
    11:00 +27°C° 0.1 mm 4 mps 716 mmHg 66%
    12:00 +29°C° 0 mm 4 mps 716 mmHg 60%
    13:00 +30°C° 0 mm 4 mps 716 mmHg 53%
    14:00 +32°C° 0 mm 4 mps 716 mmHg 47%
    15:00 +31°C° 0 mm 3 mps 716 mmHg 48%
    16:00 +31°C° 0 mm 3 mps 716 mmHg 49%
    17:00 +30°C° 0 mm 3 mps 715 mmHg 50%
    18:00 +29°C° 0 mm 2 mps 716 mmHg 57%
    19:00 +27°C° 0 mm 2 mps 717 mmHg 63%
    20:00 +25°C° 0 mm 1 mps 717 mmHg 70%
    21:00 +24°C° 0 mm 1 mps 718 mmHg 73%
    22:00 +24°C° 0 mm 1 mps 718 mmHg 75%
    23:00 +23°C° 0 mm 1 mps 718 mmHg 78%
    Show more